Showing default

GGSE 3, 1292

Orbit data source: Space-Track

GGSE 3, 1292 is an American payload satellite in LEO that was launched on Tue, 09 Mar 1965 UTC via a THOR SLV-2 AGENA D launch vehicle from the Air Force Western Test Range (AFWTR). Payload-class satellites include a variety of spacecraft equipped with specific instruments for various scientific and technological missions. These include communications satellites like Starlink; space stations such as the ISS; scientific satellites like the Hubble; Earth observation satellites from companies like Planet Labs, Umbra, and HawkEye 360; GPS; miniature CubeSats for education and research; and military/defense satellites.

Loading next visibility...
Identifier
1292, 1965-016C
Orbit
LEO
Country
Flag of USUS
Related business
Manufacturer
NRL
Mission
Defense Technology
Bus & Motor
NRL 24", Unknown motor
Mass
59 kg wet, 59 kg dry
Launch date (UTC)
1965-03-09 (61 years ago)
Launch vehicle
THOR SLV-2 AGENA D
Launch site
Air Force Western Test Range (AFWTR)
Object type
Payload
Rocket body
Debris
Shape & HBR
Sphere + 3 Ant, 15.5 m
Radar Cross Section
2.515 m², Medium (>0.1 m² and < 1m²)

Expand to show TLE details & history
Last TLE update: 12 hours ago

TLE from 12 hours ago
0 GGSE 3
1 01292U 65016C   25261.16531745  .00000148  00000-0  13266-3 0  9994
2 01292  70.0774 176.4095 0021961 305.8455  54.0614 14.01464342 86454
Epoch: 2025-09-18T03:58Z
TLE epoch observation values (Epoch: 2025-09-18T03:58:03.427Z)
Latitude
-0.00002°
Longitude
119.56439°
Altitude
881.708 km
Speed
7.416 km/s
True Right ascension
11h 45m 38s
True Declination
0° 00' 00"
Sunlit
Object was in daylight at epoch
Visualization orbit readout
Latitude
Unknown
Longitude
Unknown
Altitude
Unknown
Speed
Unknown
Apparent Right ascension
Unknown
Apparent Declination
Unknown
Sunlit
N/A
Visualization observer readout
Local Sidereal Time
08:20:11
Azimuth
Unknown
Elevation
Unknown
Doppler factor
Unknown
Orbital elements
Apogee altitude
902.713 km
Perigee altitude
870.804 km
Semi-major axis
7,264.896 km
Eccentricity
0.0022
Inclination
70.0774°
RAAN
176.4095°
Arg. of periapsis
305.8455°
True anomaly
54.26548°
Mean anomaly
54.0614°
Eccentric anomaly
54.16341°
Mean motion
3.50509 °/min
Orbital period
102.71 mins
BSTAR
0.00013266
Loading maneuver chart data...
Computing Atmospheric mass density...
Loading historical data...
Loading historical data...
Loading historical data...
Loading historical data...
Loading historical data...
Loading historical data...
Loading historical data...

Documentation

Showing up to 5 results
|